Regional Weather Roundup
Issued by NWS Newport/Morehead, NC

Current Version | Previous Version | Text Only | Print | Product List | Glossary On
Versions: 1 2 3 4 5 6 7 8 9 10 11 12 13 14 15 16 17 18 19 20 21 22 23 24 25 26 27 28 29 30 31 32 33 34 35 36 37 38 39 40 41 42 43 44 45 46 47 48 49 50
000
ASUS42 KMHX 202222
RWRMHX
WEATHER ROUNDUP FOR EASTERN NORTH CAROLINA
NATIONAL WEATHER SERVICE NEWPORT/MOREHEAD CITY NC
500 PM EST SAT DEC 20 2014

NOTE: "FAIR" INDICATES FEW OR NO CLOUDS BELOW 12,000 FEET
WITH NO SIGNIFICANT WEATHER AND/OR OBSTRUCTIONS TO VISIBILITY

NCZ015>017-031-032-045>047-102-103-202300-
NORTH COAST

CITY           SKY/WX    TMP DP  RH WIND       PRES   REMARKS
EDENTON        CLOUDY    40  32  73 CALM      30.27R
ELIZABETH CITY CLOUDY    44  30  57 CALM      30.27S
KITTY HAWK     CLOUDY    41  33  73 N3        30.25S
MANTEO         CLOUDY    41  32  71 N6        30.26S

$$

NCZ045>047-081-094-103-104-202300-
CENTRAL COAST

CITY           SKY/WX    TMP DP  RH WIND       PRES   REMARKS
FRISCO         CLOUDY    42  37  82 NE6       30.24F
SWANQUARTER      N/A     41 N/A N/A NW2       30.24R

$$

NCZ095-097-098-100-101-202300-
SOUTHERN COAST

CITY           SKY/WX    TMP DP  RH WIND       PRES   REMARKS
BEAUFORT       LGT RAIN  41  38  89 NE8       30.25R
CEDAR ISLAND     N/A     43 N/A N/A N12       30.27F
JACKSONVILLE   CLOUDY    41  38  89 NE8       30.25R
PINEY ISLAND   CLOUDY    44  35  70 NE8       30.25R
WILMINGTON     CLOUDY    43  41  93 NE9       30.24R


$$

NCZ011>013-027>030-043-044-078>080-089-090>093-098-202300-
COASTAL PLAIN

CITY           SKY/WX    TMP DP  RH WIND       PRES   REMARKS
AHOSKIE        CLOUDY    39  30  70 CALM      30.27S
CLINTON        CLOUDY    41  39  93 NE3       30.26S
ELIZABETHTOWN  CLOUDY    41  40  97 CALM      30.24S FOG
GOLDSBORO      CLOUDY    40  39  98 CALM      30.24S
GREENVILLE     CLOUDY    41  34  75 CALM      30.27S
HAVELOCK       CLOUDY    41  37  86 N9        30.26S
KENANSVILLE    MOCLDY    39  37  93 CALM      30.27R
KINSTON        CLOUDY    39  36  87 NE3       30.27R
NEW BERN       CLOUDY    42  37  82 NE7       30.26F
RICHLANDS      PTCLDY    37  34  87 N5        30.26S
ROCKY MOUNT    CLOUDY    39  35  86 CALM      30.27R
WASHINGTON     CLOUDY    40  34  80 CALM      30.27S
WHITEVILLE     CLOUDY    43  40  87 NE3       30.23R

$$

AMZ130-135-150-152-154-156-158-170-250-252-270-ANZ085-086-088-633-658-670-202300-
MARINE OBSERVATIONS

STATION/POSITION TIME  TEMP    WIND        PRES    WAVE   SWELL
                       AIR SEA DIR/SP/G            HT/PER HT/PER
                 (UTC) (F)     (DEG/KT/KT) (MB)    (FT/S) (FT/S)
CHESAPEAKE LIGHT 2200   38      10/  7/  8 1025.6
64 E VA BEACH    2200   43 54  350/ 12/ 17 1024.0    2/ 6   2/11
DUCK             2200   41 46   10/ 10/ 12 1023.7
2 E DUCK         2200      47                N/A     2/ 6
10 NE DUCK       2200      52                N/A     3/ 5
OREGON INLET     2200   42 49  360/  6/  9 1024.4
13E OREGON INLT  2200      52                N/A     3/ 5
HATTERAS CG      2200   44 51   30/  9/ 13 1024.4
DIAMOND BUOY     2200   47                 1023.8    3/ 4
17 S OCRACOKE    NOT AVBL
CAPE LOOKOUT     2200   43      20/ 10/ 12 1023.6
BEAUFORT LAB     2200   42 52   20/  8/ 10 1023.1
30 SE NEW RIVER  2200   48 61   50/ 16/ 17 1023.7    4/ 5   2/11
5 SE WRIGHTSVLE  NOT AVBL
225 S CAPE HAT   2131   65 71   90/ 12/ 16 1020.2    3/ 7   2/ 7
41 SE CHARLESTON 2200   61 70   30/ 17/ 23 1019.9    5/ 6   2/10

$$



USA.gov is the U.S. government's official web portal to all federal, state and local government web resources and services.